Regional Weather Roundup
Issued by NWS

Home | Current Version | Previous Version | Graphics & Text | Print | Product List | Glossary On
Versions: 1 2 3 4 5 6 7 8 9 10 11 12 13 14 15 16 17 18 19 20 21 22 23 24 25 26 27 28 29 30 31 32 33 34 35 36 37 38 39 40 41 42 43 44 45 46 47 48 49 50
000
ASUS43 KOAX 291510
RWRNE
OMARWRNE ALL

WEATHER ROUNDUP FOR NEBRASKA
NATIONAL WEATHER SERVICE OMAHA NE
1000 AM CDT FRI MAY 29 2015

NOTES: SATELLITE DATA IS BEING USED TO AUGMENT CLOUD COVER ABOVE
       12000 FEET.
       "FAIR" INDICATES FEW OR NO CLOUDS BELOW 12,000 FEET WITH NO
       SIGNIFICANT WEATHER AND/OR OBSTRUCTIONS TO VISIBILITY.

  * THESE STATIONS DO NOT REPORT WEATHER SUCH AS RAIN...SNOW OR FOG.

NEZ001>004-019>022-054>056-291600-
NEBRASKA PANHANDLE

CITY           SKY/WX    TMP DP  RH WIND       PRES   REMARKS
SCOTTSBLUFF    CLOUDY    57  52  83 NW8       30.16R
ALLIANCE       LGT RAIN  55  53  93 N13       30.12R FOG
CHADRON        CLOUDY    53  50  89 N22G30    30.15R
KIMBALL          N/A    N/A N/A N/A MISG        N/A
SIDNEY         CLOUDY    56  51  84 N17       30.16R
$$

NEZ057>060-069>072-079>082-291600-
SOUTHWEST NEBRASKA

CITY           SKY/WX    TMP DP  RH WIND       PRES   REMARKS
NORTH PLATTE   PTSUNNY   64  55  72 NW12      30.04S
IMPERIAL         N/A     63  54  72 NW15      30.08R
LEXINGTON      SUNNY     67  58  73 N10       30.00S
MCCOOK         MOSUNNY   66  56  70 N12       30.04R
OGALLALA       MOSUNNY   62  55  76 N16       30.08R
$$

NEZ005>010-023>029-035>040-094-291600-
NORTH CENTRAL NEBRASKA

CITY           SKY/WX    TMP DP  RH WIND       PRES   REMARKS
VALENTINE      CLOUDY    57  55  93 N17G28    30.05R
AINSWORTH      CLOUDY    63  56  79 NW21      30.02R
BROKEN BOW     SUNNY     67  58  72 N16       29.99R
O`NEILL        CLOUDY    65  61  86 NW14      29.95S
ORD            MOSUNNY   65  58  78 NW14      29.96R
THEDFORD       CLOUDY    60  57  87 NW12G18   30.05S
$$

NEZ041-046>049-061>064-073>077-083>087-291600-
SOUTH CENTRAL NEBRASKA

CITY           SKY/WX    TMP DP  RH WIND       PRES   REMARKS
GRAND ISLAND   PTSUNNY   66  58  75 N10       29.96S
AURORA         CLOUDY    65  61  88 NW6       29.96R
HASTINGS       PTSUNNY   66  58  75 N9        29.97R
HEBRON         CLOUDY    67  60  78 W3        29.96S
HOLDREGE       SUNNY     67  56  66 NW12      30.00R
KEARNEY *      MOSUNNY   66  55  68 NW12      29.98R
YORK           CLOUDY    66  59  77 W6        29.95S
$$

NEZ011>018-030>034-042>045-291600-
NORTHEAST NEBRASKA

CITY           SKY/WX    TMP DP  RH WIND       PRES   REMARKS
NORFOLK        CLOUDY    66  60  81 VRB6      29.91F
ALBION         PTSUNNY   66  58  75 NW10      29.94R
BLAIR          CLOUDY    68  62  80 S9        29.93S
COLUMBUS *     CLOUDY    66  57  72 W3        29.94F
FREMONT        CLOUDY    69  63  79 SW6       29.93R
TEKAMAH        CLOUDY    70  64  81 SW10      29.92R
WAYNE          CLOUDY    67  62  83 W7        29.91F
$$

NEZ050>053-065>068-078-088>093-291600-
SOUTHEAST NEBRASKA

CITY           SKY/WX    TMP DP  RH WIND       PRES   REMARKS
LINCOLN        CLOUDY    69  61  75 W7        29.94S
OMAHA EPPLEY   CLOUDY    69  63  81 S6        29.93S
BEATRICE       CLOUDY    68  62  81 W7        29.95S
FALLS CITY     LGT RAIN  68  65  90 S13       29.94S
NEBRASKA CITY  CLOUDY    69  67  94 SW8       29.94F
PLATTSMOUTH    CLOUDY    68  65  90 CALM      29.93F
$$

NEZ044-045-051>053-067-291600-
OMAHA AREA

CITY           SKY/WX    TMP DP  RH WIND       PRES   REMARKS
OMAHA EPPLEY   CLOUDY    69  63  81 S6        29.93S
BLAIR          CLOUDY    68  62  80 S9        29.93S
FREMONT        CLOUDY    69  63  79 SW6       29.93R
MILLARD        CLOUDY    69  63  80 SW6       29.93S
OFFUTT AFB     PTSUNNY   69  65  88 S6        29.92F
PLATTSMOUTH    CLOUDY    68  65  90 CALM      29.93F
WAHOO          FAIR      69  61  77 S7        29.93S
$$


USA.gov is the U.S. government's official web portal to all federal, state and local government web resources and services.